Flag for Switzerland Weather past 2 weeks in Uster, Zurich, Switzerland

Now
66 °F

Mild.


Feels Like: 66 °F
Forecast: 53 / 84 °F
Wind: No wind

Location: Zurich Town / Ville.

Current Time: Jun 30, 2015 at 1:11:58 AM

Latest Report: Jun 30, 2015 at 12:00 AM


Visibility: N/A

Pressure: 30.16 "Hg

Humidity: 64%

Dew point: 53 °F

Location of UsterLocation

Historic Weather in Uster — Graph

°F

Uster temperature yesterday

Maximum temperature yesterday: 80 °F (at 5:00 PM)
Minimum temperature yesterday: 59 °F (at 6:00 AM)
Average temperature yesterday: 70 °F

Past Weeks' High & Low Weather Summary

 TemperatureHumidityPressure
High80 °F (Jun 29, 5:00 PM)98% (Jun 15, 2:00 AM)30.23 "Hg (Jun 15, 2:00 AM)
Low47 °F (Jun 24, 5:00 AM)26% (Jun 25, 8:00 PM)29.70 "Hg (Jun 22, 10:00 PM)
Average62 °F71%30.08 "Hg
* Reported Jun 14 10:00 PM — Jun 29 10:00 PM, Uster, Weather by CustomWeather, © 2015

Note: Actual official high and low records may vary slightly from our data, if they occured in-between our weather recording intervals... More about our weather records

Advertising

Uster weather history for previous 24 hours

 ConditionsComfort  
Time TempWeatherWind HumidityBarometerVisibility
10:00 PM
Mon, Jun 29
69 °FMild.1 mph55%30.15 "HgN/A
9:00 PM72 °FMild.1 mph51%30.13 "HgN/A
8:00 PM76 °FMild.1 mph43%30.11 "HgN/A
7:00 PM79 °FPleasantly warm.1 mph33%30.09 "HgN/A
6:00 PM80 °FPleasantly warm.5 mph34%30.09 "HgN/A
5:00 PM80 °FPleasantly warm.5 mph31%30.09 "HgN/A
4:00 PM78 °FPleasantly warm.1 mph38%30.11 "HgN/A
3:00 PM79 °FPleasantly warm.3 mph34%30.11 "HgN/A
2:00 PM76 °FMild.2 mph43%30.13 "HgN/A
1:00 PM76 °FMild.2 mph42%30.12 "HgN/A
12:00 PM74 °FMild.3 mph48%30.14 "HgN/A
11:00 AM70 °FMild.3 mph58%30.15 "HgN/A
10:00 AM67 °FMild.2 mph67%30.17 "HgN/A
9:00 AM64 °FMild.2 mph73%30.18 "HgN/A
8:00 AM62 °FMild.2 mph80%30.17 "HgN/A
7:00 AM60 °FCool.No wind78%30.17 "HgN/A
6:00 AM59 °FCool.No wind81%30.17 "HgN/A
4:00 AM60 °FCool.1 mph79%30.16 "HgN/A
3:00 AM60 °FCool.1 mph78%30.15 "HgN/A
2:00 AM62 °FCool.No wind70%30.15 "HgN/A
1:00 AM65 °FMild.1 mph60%30.14 "HgN/A
Weather by CustomWeather, © 2015

See weather overviewHow to use our weather pages